Location: *
(42.0175°N, 9.4056°E)
Time: 16:24:52
(UTC+00:00)

TSX-5 - Pass Details

Date: 25 August 2019
Orbit: 405 x 1332 km, 68.9° (Epoch: 17 September)

Event Time Altitude Azimuth Distance (km) Brightness Sun altitude
Rises 19:20:58 0° 331° (NNW) 2,480 8.2 -13.4°
Reaches altitude 10° 19:22:53 10° 330° (NNW) 1,675 7.2 -13.7°
Maximum altitude 19:26:32 79° 245° (WSW) 572 3.9 -14.3°
Enters shadow 19:29:58 17° 159° (SSE) 1,616 5.7 -14.9°
